FENGYUN 1C DEB, 35135

Orbit data source: Space-Track

FENGYUN 1C DEB, 35135 is space debris in SSO originally from a launch on Mon, 10 May 1999 UTC launched from the Taiyaun Space Center, China (TSC). Fengyun 1C debris stems from the Chinese weather satellite Fengyun-1C, which was intentionally destroyed by a Chinese anti-satellite missile in 2007. This event dramatically increased the amount of space debris, with thousands of trackable fragments posing hazards to satellites and human spaceflight. The Fengyun 1C debris cloud has become a focal point in discussions about space sustainability and the need for international regulations to prevent the creation of new debris.

Loading next visibility...
Identifier
35135, 1999-025DLP
Orbit
SSO
Country
Flag of CNCN / PRC
Related business
Manufacturer
Unknown
Mission
Spacecraft
Bus & Motor
Unknown
Mass
Unknown
Launch date (UTC)
1999-05-10 (27 years ago)
Launch vehicle
Unknown
Launch site
Taiyaun Space Center, China (TSC)
Object type
Payload
Rocket body
Debris
Shape & HBR
Unknown shape, 0.1 m
Radar Cross Section
Small (<0.1 m²)

Expand to show TLE details & history
Last TLE update: 2 days ago

TLE from 2 days ago
0 FENGYUN 1C DEB
1 35135U 99025DLP 26122.26472733  .00000715  00000-0  32665-3 0  9997
2 35135  98.5615 132.1831 0080385 235.1895 124.1702 14.22853142898227
Epoch: 2026-05-02T06:21Z
TLE epoch observation values (Epoch: 2026-05-02T06:21:12.441Z)
Latitude
-0.00003°
Longitude
176.69615°
Altitude
851.445 km
Speed
7.41 km/s
True Right ascension
08h 48m 43s
True Declination
0° 00' 00"
Sunlit
Object was in daylight at epoch
Visualization orbit readout
Latitude
Unknown
Longitude
Unknown
Altitude
Unknown
Speed
Unknown
Apparent Right ascension
Unknown
Apparent Declination
Unknown
Sunlit
N/A
Visualization observer readout
Local Sidereal Time
22:00:07
Azimuth
Unknown
Elevation
Unknown
Doppler factor
Unknown
Orbital elements
Apogee altitude
870.672 km
Perigee altitude
755.062 km
Semi-major axis
7,191.004 km
Eccentricity
0.00804
Inclination
98.5615°
RAAN
132.1831°
Arg. of periapsis
235.1895°
True anomaly
124.92803°
Mean anomaly
124.1702°
Eccentric anomaly
124.54954°
Mean motion
3.55925 °/min
Orbital period
101.14 mins
BSTAR
0.00032665
Loading maneuver chart data...
Computing Atmospheric mass density...

Documentation

Showing up to 5 results
|